Date,TemperatureHighF,TemperatureAvgF,TemperatureLowF,DewpointHighF,DewpointAvgF,DewpointLowF,HumidityHigh,HumidityAvg,HumidityLow,PressureMaxIn,PressureMinIn,WindSpeedMaxMPH,WindSpeedAvgMPH,GustSpeedMaxMPH,PrecipitationSumIn
2013-1-1,20,5,-10,15,-2,-17,83,75,65,30.35,30.07,7,2,0,0.00
2013-1-2,21,16,14,17,13,10,89,87,81,30.11,29.98,10,2,0,0.00
2013-1-3,19,12,9,14,6,1,81,76,66,30.31,30.11,13,4,0,0.00
2013-1-4,27,21,15,15,13,10,86,71,60,30.15,30.03,12,4,0,0.00
2013-1-5,23,17,10,14,10,6,86,76,62,30.11,29.88,10,2,0,0.00
2013-1-6,20,15,9,14,9,2,87,75,66,30.26,30.04,10,2,0,0.00
2013-1-7,36,29,21,24,21,14,85,73,62,30.02,29.89,17,6,0,0.00
2013-1-8,34,28,18,28,22,15,88,81,68,29.98,29.76,10,3,0,0.00
2013-1-9,33,30,26,26,22,19,81,70,60,30.36,29.91,17,5,0,0.00
2013-1-10,41,36,29,33,25,19,94,66,41,30.29,29.72,11,4,0,0.00
2013-1-11,41,37,35,40,36,34,97,96,93,29.71,29.36,10,2,0,0.00
2013-1-12,38,14,4,36,6,-5,93,71,61,30.14,29.37,24,7,0,0.00
2013-1-13,8,4,1,0,-3,-6,74,70,65,30.29,30.11,9,2,0,0.00
2013-1-14,12,8,5,6,0,-1,79,71,60,30.47,30.29,13,2,0,0.00
2013-1-15,30,21,12,16,12,6,79,68,53,30.31,29.85,14,5,0,0.00
2013-1-16,37,26,11,31,18,-2,91,73,42,30.24,29.66,16,5,0,0.01
2013-1-17,18,11,3,10,1,-6,75,62,48,30.45,30.26,10,2,0,0.00
2013-1-18,42,31,17,29,23,10,84,75,59,30.31,29.73,18,4,0,0.00
2013-1-19,38,24,2,30,16,-7,88,73,53,30.26,29.66,22,5,0,0.00
2013-1-20,8,3,-1,1,-12,-100,76,59,49,30.47,30.27,11,-49,0,0.00
2013-1-21,-4,-4,-10,-14,-46,-100,68,39,53,30.44,30.32,13,-342,0,0.00
2013-1-22,6,-3,-11,-4,-13,-19,68,62,55,30.49,30.30,6,1,0,0.00
2013-1-23,16,7,-4,7,-4,-19,81,61,44,30.65,30.20,13,3,0,0.00
2013-1-24,14,3,-6,0,-12,-20,56,51,42,30.74,30.22,10,2,0,0.00
2013-1-25,19,12,4,12,2,-6,74,63,53,30.35,29.98,16,5,0,0.00
2013-1-26,25,13,0,10,2,-7,76,61,46,30.40,30.13,10,2,0,0.00
2013-1-27,33,31,25,30,23,10,95,74,53,30.13,29.79,9,2,0,0.09
2013-1-28,35,32,31,34,31,30,98,95,93,29.89,29.62,5,1,0,0.29
2013-1-29,35,32,28,32,28,21,97,87,74,29.74,29.53,20,2,0,0.10
2013-1-30,28,18,8,20,9,-1,77,70,64,29.80,29.65,14,6,0,0.00
2013-1-31,8,0,-8,1,-9,-19,74,64,57,30.35,29.81,15,5,0,0.00